Date String (YYYY-MM-DD hh:mm:ss) UTC,Instrument flags,absolute air pressure of the measurement (hPa),sample flow rate (lpm),inlet stack bypass flow (lpm),air temperature of the measurement (°C),ambient temperature measured by the external sensor (°C),aerosol sample conditioner tube jacket temperature (°C),OPC LED temperature (°C),internal box temperature (°C),relative humidity of the measurement (%),span deviation,mass concentration of particles derived from Lorenz-Mie calculation of OPC scattering (μg/m³),mass concentration of particles derived from Lorenz-Mie calculation of OPC scattering (μg/m³),mass concentration of particles derived from Lorenz-Mie calculation of OPC scattering (μg/m³)
DateTimeUTC,F1_M11,P_M11,Q1_M11,Q2_M11,T1_M11,T2_M11,T3_M11,T4_M11,T5_M11,U1_M11,ZSPAN_M11,X0_M11,X2_M11,X1_M11
2024-01-28 14:00:00,SystemResetWarning,0836.4,5.00,000.00,020.1,019.0,000.0,028.4,021.4,11.5,0000.0,0002.56,0001.83,0001.54
2024-01-28 14:01:00,SystemResetWarning,0836.4,5.00,000.00,020.1,019.0,000.0,028.4,021.4,11.6,0000.0,0002.34,0001.75,0001.53
2024-01-28 14:02:00,SystemResetWarning,0836.4,5.00,000.00,020.1,019.0,000.0,028.4,021.4,11.7,0000.0,0002.18,0001.70,0001.51
2024-01-28 14:03:00,SystemResetWarning,0836.4,5.01,000.00,020.1,019.0,000.0,028.4,021.4,11.7,0000.0,0002.14,0001.68,0001.50
2024-01-28 14:04:00,SystemResetWarning,0836.4,5.01,000.00,020.1,019.0,000.0,028.4,021.4,11.7,0000.0,0002.28,0001.72,0001.52
2024-01-28 14:05:00,SystemResetWarning,0836.4,5.00,000.00,020.1,019.0,000.0,028.4,021.4,11.9,0000.0,0002.34,0001.74,0001.54
2024-01-28 14:06:00,SystemResetWarning,0836.3,5.00,000.00,020.1,019.0,000.0,028.4,021.4,12.2,0000.0,0002.35,0001.75,0001.54
2024-01-28 14:07:00,SystemResetWarning,0836.3,5.00,000.00,020.0,018.9,000.0,028.4,021.3,12.3,0000.0,0002.33,0001.74,0001.54
2024-01-28 14:08:00,SystemResetWarning,0836.4,5.00,000.00,020.0,018.9,000.0,028.4,021.3,12.3,0000.0,0002.21,0001.70,0001.53
2024-01-28 14:09:00,SystemResetWarning,0836.4,5.00,000.00,020.0,018.9,000.0,028.4,021.3,12.2,0000.0,0002.19,0001.71,0001.54
2024-01-28 14:10:00,SystemResetWarning,0836.4,5.00,000.00,020.0,018.9,000.0,028.4,021.3,12.3,0000.0,0002.18,0001.70,0001.53
2024-01-28 14:11:00,SystemResetWarning,0836.4,5.00,000.00,020.0,018.9,000.0,028.4,021.3,12.3,0000.0,0002.18,0001.69,0001.51
2024-01-28 14:12:00,SystemResetWarning,0836.4,5.00,000.00,020.0,018.9,000.0,028.4,021.3,12.1,0000.0,0002.16,0001.67,0001.49
2024-01-28 14:13:00,SystemResetWarning,0836.4,5.01,000.00,020.0,018.9,000.0,028.4,021.3,12.0,0000.0,0002.17,0001.67,0001.48
2024-01-28 14:14:00,SystemResetWarning,0836.4,5.01,000.00,020.0,018.9,000.0,028.4,021.3,12.0,0000.0,0002.12,0001.65,0001.47
2024-01-28 14:15:00,SystemResetWarning,0836.4,5.00,000.00,020.0,018.9,000.0,028.4,021.3,12.2,0000.0,0001.99,0001.59,0001.44
2024-01-28 14:16:00,SystemResetWarning,0836.4,4.99,000.00,020.0,018.9,000.0,028.3,021.3,12.1,0000.0,0002.17,0001.53,0001.40
2024-01-28 14:17:00,SystemResetWarning,0836.4,5.00,000.00,020.0,018.9,000.0,028.3,021.3,12.2,0000.0,0002.24,0001.54,0001.38
2024-01-28 14:18:00,SystemResetWarning,0836.4,5.00,000.00,020.0,018.9,000.0,028.3,021.3,12.2,0000.0,0002.27,0001.55,0001.37
2024-01-28 14:19:00,SystemResetWarning,0836.4,4.99,000.00,020.0,018.9,000.0,028.3,021.3,12.2,0000.0,0002.30,0001.55,0001.36
2024-01-28 14:20:00,SystemResetWarning,0836.4,5.00,000.00,020.0,018.9,000.0,028.3,021.3,12.2,0000.0,0002.33,0001.55,0001.35
2024-01-28 14:21:00,SystemResetWarning,0836.4,5.01,000.00,020.0,018.9,000.0,028.3,021.3,12.1,0000.0,0002.35,0001.55,0001.34
2024-01-28 14:22:00,SystemResetWarning,0836.4,5.01,000.00,020.0,018.9,000.0,028.3,021.2,11.8,0000.0,0003.09,0001.51,0001.32
2024-01-28 14:23:00,SystemResetWarning,0836.4,5.00,000.00,020.0,018.9,000.0,028.3,021.2,11.8,0000.0,0003.19,0001.47,0001.28
2024-01-28 14:24:00,SystemResetWarning,0836.4,5.00,000.00,020.0,018.9,000.0,028.3,021.3,11.9,0000.0,0003.18,0001.44,0001.25
2024-01-28 14:25:00,SystemResetWarning,0836.4,5.00,000.00,019.9,018.9,000.0,028.3,021.3,11.6,0000.0,0003.12,0001.40,0001.22
2024-01-28 14:26:00,SystemResetWarning,0836.3,5.00,000.00,019.9,018.9,000.0,028.3,021.3,11.6,0000.0,0003.10,0001.38,0001.19
2024-01-28 14:27:00,SystemResetWarning,0836.3,5.00,000.00,019.9,018.9,000.0,028.3,021.3,12.0,0000.0,0002.81,0001.35,0001.16
2024-01-28 14:28:00,SystemResetWarning,0836.3,4.99,000.00,019.9,018.9,000.0,028.3,021.3,12.0,0000.0,0002.64,0001.30,0001.12
2024-01-28 14:29:00,SystemResetWarning,0836.2,5.00,000.00,019.9,018.9,000.0,028.3,021.3,12.2,0000.0,0002.55,0001.25,0001.09
2024-01-28 14:30:00,SystemResetWarning,0836.3,5.00,000.00,019.9,018.9,000.0,028.3,021.3,12.4,0000.0,0002.47,0001.20,0001.06
2024-01-28 14:31:00,SystemResetWarning,0836.3,5.00,000.00,019.9,018.9,000.0,028.3,021.2,12.4,0000.0,0002.38,0001.15,0001.02
2024-01-28 14:32:00,SystemResetWarning,0836.2,5.00,000.00,019.9,018.9,000.0,028.3,021.3,12.2,0000.0,0002.29,0001.09,0000.97
2024-01-28 14:33:00,SystemResetWarning,0836.4,5.00,000.00,019.9,018.9,000.0,028.3,021.3,12.2,0000.0,0001.61,0001.04,0000.94
2024-01-28 14:34:00,SystemResetWarning,0836.4,5.00,000.00,019.9,018.9,000.0,028.3,021.3,12.4,0000.0,0001.31,0001.03,0000.92
2024-01-28 14:35:00,SystemResetWarning,0836.4,5.00,000.00,019.9,018.9,000.0,028.3,021.2,12.4,0000.0,0001.45,0001.03,0000.90
2024-01-28 14:36:00,SystemResetWarning,0836.5,5.01,000.00,019.9,018.9,000.0,028.3,021.3,12.1,0000.0,0001.74,0001.02,0000.87
2024-01-28 14:37:00,SystemResetWarning,0836.5,5.01,000.00,019.9,018.9,000.0,028.3,021.3,12.0,0000.0,0001.73,0001.01,0000.86
2024-01-28 14:38:00,SystemResetWarning,0836.7,4.99,000.00,019.9,019.0,000.0,028.3,021.3,12.1,0000.0,0001.73,0001.00,0000.85
2024-01-28 14:39:00,SystemResetWarning,0836.6,5.00,000.00,019.9,019.0,000.0,028.3,021.3,11.9,0000.0,0001.68,0000.97,0000.84
2024-01-28 14:40:00,SystemResetWarning,0836.6,5.00,000.00,020.0,019.0,000.0,028.3,021.3,12.0,0000.0,0001.62,0000.93,0000.81
2024-01-28 14:41:00,SystemResetWarning,0836.6,5.00,000.00,020.0,019.0,000.0,028.3,021.3,12.2,0000.0,0001.60,0000.91,0000.79
2024-01-28 14:42:00,SystemResetWarning,0836.6,4.99,000.00,020.0,019.0,000.0,028.3,021.3,12.3,0000.0,0001.61,0000.91,0000.78
2024-01-28 14:43:00,SystemResetWarning,0836.6,5.00,000.00,020.0,019.1,000.0,028.3,021.3,12.4,0000.0,0001.63,0000.92,0000.79
2024-01-28 14:44:00,SystemResetWarning,0836.6,5.00,000.00,020.0,019.1,000.0,028.3,021.3,12.3,0000.0,0001.62,0000.91,0000.78
2024-01-28 14:45:00,SystemResetWarning,0836.6,5.02,000.00,020.0,019.1,000.0,028.3,021.3,12.2,0000.0,0001.54,0000.88,0000.77
2024-01-28 14:46:00,SystemResetWarning,0836.6,4.99,000.00,020.0,019.1,000.0,028.3,021.3,12.4,0000.0,0001.30,0000.83,0000.75
2024-01-28 14:47:00,SystemResetWarning,0836.5,4.98,000.00,020.0,019.1,000.0,028.3,021.3,12.5,0000.0,0000.95,0000.79,0000.73
2024-01-28 14:48:00,SystemResetWarning,0836.5,5.00,000.00,020.0,019.1,000.0,028.3,021.3,12.5,0000.0,0000.93,0000.77,0000.71
2024-01-28 14:49:00,SystemResetWarning,0836.4,5.01,000.00,020.0,019.1,000.0,028.3,021.4,12.7,0000.0,0000.92,0000.75,0000.69
2024-01-28 14:50:00,SystemResetWarning,0836.5,5.01,000.00,020.0,019.1,000.0,028.3,021.4,12.7,0000.0,0000.91,0000.74,0000.69
2024-01-28 14:51:00,SystemResetWarning,0836.5,4.99,000.00,020.0,019.2,000.0,028.3,021.4,12.8,0000.0,0000.90,0000.74,0000.68
2024-01-28 14:52:00,SystemResetWarning,0836.5,4.99,000.00,020.0,019.2,000.0,028.3,021.4,12.8,0000.0,0000.90,0000.74,0000.69
2024-01-28 14:53:00,SystemResetWarning,0836.6,4.99,000.00,020.0,019.2,000.0,028.3,021.4,12.8,0000.0,0000.87,0000.72,0000.68
2024-01-28 14:54:00,SystemResetWarning,0836.6,5.00,000.00,020.0,019.3,000.0,028.3,021.4,12.9,0000.0,0000.84,0000.70,0000.67
2024-01-28 14:55:00,SystemResetWarning,0836.6,5.00,000.00,020.0,019.3,000.0,028.3,021.5,12.9,0000.0,0000.84,0000.70,0000.66
2024-01-28 14:56:00,SystemResetWarning,0836.5,5.00,000.00,020.0,019.3,000.0,028.3,021.5,12.9,0000.0,0000.83,0000.69,0000.65
2024-01-28 14:57:00,SystemResetWarning,0836.5,5.00,000.00,020.1,019.3,000.0,028.3,021.5,12.9,0000.0,0000.83,0000.69,0000.64
2024-01-28 14:58:00,SystemResetWarning,0836.5,5.00,000.00,020.1,019.3,000.0,028.3,021.5,12.9,0000.0,0001.45,0000.71,0000.64
2024-01-28 14:59:00,SystemResetWarning,0836.4,5.00,000.00,020.1,019.3,000.0,028.3,021.5,12.9,0000.0,0001.52,0000.70,0000.64
